TimeMST,TemperatureF,Dew PointF,Humidity,Sea Level PressureIn,VisibilityMPH,Wind Direction,Wind SpeedMPH,Gust SpeedMPH,PrecipitationIn,Events,Conditions,WindDirDegrees,DateUTC
12:53 AM,41.0,23.0,49,29.33,10.0,WNW,15.0,19.6,N/A,,Overcast,290,2013-11-16 07:53:00
1:53 AM,39.9,23.0,51,29.31,10.0,North,6.9,-,0.00,,Overcast,10,2013-11-16 08:53:00
2:53 AM,37.0,23.0,57,29.31,10.0,South,5.8,-,N/A,,Overcast,190,2013-11-16 09:53:00
3:53 AM,37.0,23.0,57,29.31,10.0,South,3.5,-,N/A,,Overcast,170,2013-11-16 10:53:00
4:53 AM,37.0,25.0,62,29.31,10.0,ENE,3.5,-,N/A,,Overcast,60,2013-11-16 11:53:00
5:53 AM,37.9,27.0,65,29.30,10.0,Variable,3.5,-,N/A,,Overcast,0,2013-11-16 12:53:00
6:53 AM,37.0,23.0,57,29.29,10.0,SSE,4.6,-,N/A,,Overcast,160,2013-11-16 13:53:00
7:53 AM,37.0,23.0,57,29.29,10.0,SSE,5.8,-,N/A,,Mostly Cloudy,160,2013-11-16 14:53:00
8:53 AM,36.0,27.0,70,29.29,10.0,NE,5.8,-,N/A,,Mostly Cloudy,50,2013-11-16 15:53:00
9:53 AM,37.9,28.0,68,29.28,10.0,NE,6.9,-,N/A,,Overcast,40,2013-11-16 16:53:00
10:53 AM,39.0,28.0,65,29.31,10.0,Calm,Calm,-,N/A,,Mostly Cloudy,0,2013-11-16 17:53:00
11:53 AM,44.1,24.1,45,29.26,10.0,SW,5.8,-,N/A,,Mostly Cloudy,230,2013-11-16 18:53:00
12:53 PM,44.1,21.9,42,29.25,10.0,SW,6.9,-,N/A,,Mostly Cloudy,230,2013-11-16 19:53:00
1:53 PM,43.0,25.0,49,29.26,10.0,WNW,9.2,-,N/A,,Mostly Cloudy,290,2013-11-16 20:53:00
2:53 PM,46.0,23.0,40,29.25,10.0,Variable,4.6,-,N/A,,Scattered Clouds,0,2013-11-16 21:53:00
3:53 PM,43.0,25.0,49,29.28,10.0,NNE,9.2,-,N/A,,Mostly Cloudy,20,2013-11-16 22:53:00
3:59 PM,43.0,26.1,51,29.26,10.0,NNW,16.1,20.7,0.00,,Small Hail,340,2013-11-16 22:59:00
4:10 PM,41.0,26.1,55,29.25,10.0,Calm,Calm,-,0.03,Rain,Light Rain,0,2013-11-16 23:10:00
4:53 PM,41.0,26.1,55,29.30,10.0,West,5.8,-,0.03,,Mostly Cloudy,280,2013-11-16 23:53:00
5:53 PM,39.9,25.0,55,29.34,10.0,WNW,10.4,-,0.00,,Overcast,290,2013-11-17 00:53:00
6:53 PM,37.0,28.0,70,29.38,10.0,West,25.3,36.8,0.00,Snow,Light Snow,280,2013-11-17 01:53:00
7:53 PM,37.0,28.0,70,29.41,10.0,WSW,12.7,-,0.00,,Overcast,250,2013-11-17 02:53:00
8:53 PM,36.0,28.0,73,29.44,10.0,WSW,10.4,-,N/A,,Mostly Cloudy,240,2013-11-17 03:53:00
9:53 PM,35.1,27.0,72,29.46,10.0,WSW,11.5,-,N/A,,Mostly Cloudy,250,2013-11-17 04:53:00
10:53 PM,34.0,26.1,73,29.49,10.0,West,15.0,-,N/A,,Mostly Cloudy,280,2013-11-17 05:53:00
11:53 PM,35.1,23.0,61,29.50,10.0,West,12.7,-,N/A,,Mostly Cloudy,280,2013-11-17 06:53:00